KN6RO-14 Weather Reports


Display with metric or nautical units.
time (UTC)temp
F
wind
direction
speed
MPH
gust
MPH
rain 1hr
in
rain 24hr
in
rain mn
in
humidity
%
barometer
mb
20260509112400 57 127 0.0 0.0 0.00 0.00 0.00 87 1011.6
20260509105400 56 127 0.0 0.0 0.00 0.00 0.00 87 1011.5
20260509102400 56 125 0.0 0.0 0.00 0.00 0.00 86 1011.4
20260509095400 57 130 0.0 0.0 0.00 0.00 0.00 86 1011.3
20260509092400 57 258 0.0 0.0 0.00 0.00 0.00 85 1011.5
20260509085400 57 258 0.0 0.0 0.00 0.00 0.00 85 1011.4
20260509082400 57 274 0.0 1.0 0.00 0.00 0.00 83 1011.8
20260509075400 56 274 0.0 0.0 0.00 0.00 0.00 83 1011.6
20260509072446 56 248 0.0 1.0 0.00 0.00 0.00 84 1011.4
20260509072400 56 248 0.0 1.0 0.00 0.00 0.00 84 1011.4
20260509065400 56 290 0.0 0.0 0.00 0.00 0.00 84 1011.8
20260509062401 56 266 0.0 0.0 0.00 0.00 0.00 84 1012.0
20260509055401 57 266 0.0 0.0 0.00 0.00 0.00 83 1013.1
20260509052401 56 266 0.0 0.0 0.00 0.00 0.00 82 1012.8
20260509045401 56 266 0.0 0.0 0.00 0.00 0.00 82 1012.9
20260509042401 57 324 0.0 0.0 0.00 0.00 0.00 78 1013.1
20260509035401 57 101 0.0 1.0 0.00 0.00 0.00 76 1013.7
20260509032401 57 254 0.0 3.0 0.00 0.00 0.00 75 1013.9
20260509025401 58 352 0.0 1.0 0.00 0.00 0.00 72 1014.1
20260509022401 58 242 0.0 0.0 0.00 0.00 0.00 72 1014.0
20260509015401 60 75 0.0 1.0 0.00 0.00 0.00 68 1014.0
20260509012401 59 75 0.0 1.0 0.00 0.00 0.00 66 1013.8
20260509005401 59 75 0.0 0.0 0.00 0.00 0.00 66 1013.7
20260509002402 59 75 0.0 0.0 0.00 0.00 0.00 65 1013.9
20260508235401 60 75 0.0 0.0 0.00 0.00 0.00 64 1013.6
20260508232401 60 75 0.0 1.0 0.00 0.00 0.00 67 1013.6
20260508225401 61 74 0.0 0.0 0.00 0.00 0.00 66 1013.8
20260508222401 62 76 0.0 2.0 0.00 0.00 0.00 66 1013.7
20260508215401 63 82 0.0 0.0 0.00 0.00 0.00 66 1013.7
20260508212401 64 92 0.0 1.0 0.00 0.00 0.00 71 1013.7
20260508205401 65 92 0.0 1.0 0.00 0.00 0.00 62 1013.8
20260508202402 67 101 0.0 1.0 0.00 0.00 0.00 59 1014.0
20260508195402 67 265 0.0 1.0 0.00 0.00 0.00 62 1014.0
20260508192402 68 29 0.0 2.0 0.00 0.00 0.00 60 1014.9
20260508185402 68 55 0.0 2.0 0.00 0.00 0.00 53 1014.7
20260508182402 69 59 0.0 1.0 0.00 0.00 0.00 54 1015.4
20260508175402 70 68 1.0 4.0 0.00 0.00 0.00 51 1015.6
20260508172402 68 52 1.0 3.0 0.00 0.00 0.00 55 1015.8
20260508165402 67 246 0.0 1.0 0.00 0.00 0.00 55 1016.1
20260508162402 65 34 1.0 4.0 0.00 0.00 0.00 57 1017.1
20260508155402 66 34 1.0 3.0 0.00 0.00 0.00 61 1017.3
20260508152402 64 22 2.0 4.0 0.00 0.00 0.00 56 1017.5
20260508145402 66 65 0.0 2.0 0.00 0.00 0.00 58 1017.7
20260508142402 61 47 1.0 4.0 0.00 0.00 0.00 60 1017.5
20260508135402 61 72 1.0 3.0 0.00 0.00 0.00 57 1017.5
20260508132402 58 46 1.0 2.0 0.00 0.00 0.00 62 1017.7
20260508125402 55 49 1.0 3.0 0.00 0.00 0.00 69 1017.6
20260508122402 53 30 1.0 2.0 0.00 0.01 0.00 69 1017.3
20260508115402 52 342 1.0 2.0 0.00 0.01 0.00 68 1016.7